Location: Harbor Side
(32.6101°N, 117.0814°W)
Time: 07:17:20
(UTC+00:00)

Meteor 2-11 Rocket - Pass Details

Date: 21 April 2021
Orbit: 940 x 956 km, 82.5° (Epoch: 14 May)

Event Time Altitude Azimuth Distance (km) Brightness Sun altitude
Rises 12:28:31 0° 351° (N) 3,628 7.7 -9.5°
Reaches altitude 10° 12:31:01 10° 350° (N) 2,681 7.0 -9.0°
Maximum altitude 12:37:08 76° 266° (W) 984 4.4 -7.7°
Drops below altitude 10° 12:43:15 10° 181° (S) 2,674 6.6 -6.5°
Sets 12:45:44 0° 180° (S) 3,617 7.3 -6.0°
